This demonstration page uses our WeatherBlox Daily Observations layout. Learn more.

Left ArrowRight Arrow

36.19886, -115.1175

Hourly Observations for December 12, 2020

Temp ( °F °C ) Dew Point ( °F °C ) Humidity (%) Winds ( mph kmh ) Pressure ( in mb ) Visibility ( mi km ) Precip ( " mm )
12:53 am 00:53 Clear 39 3.9 28 -2.2 65 65 WNW 6 9 29.97 1015 10 16 N/A
1:53 am 01:53 Clear 38 3.3 28 -2.2 68 68 NNW 5 7 29.96 1015 10 16 N/A
2:53 am 02:53 Clear 40 4.4 25 -3.9 55 55 NNW 9 15 29.95 1014 10 16 N/A
3:53 am 03:53 Clear 43 6.1 20 -6.7 40 40 NNW 9 15 29.92 1013 10 16 N/A
4:53 am 04:53 Clear 43 6.1 16 -8.9 34 34 N 9 15 29.92 1013 10 16 N/A
5:53 am 05:53 Clear 42 5.6 21 -6.1 43 43 N N/A 29.92 1013 10 16 N/A
6:53 am 06:53 Sunny 41 5 20 -6.7 43 43 WNW 6 9 29.91 1013 10 16 N/A
7:53 am 07:53 Sunny 41 5 20 -6.7 43 43 N N/A 29.91 1013 10 16 N/A
8:53 am 08:53 Sunny 46 7.8 25 -3.9 44 44 N N/A 29.92 1013 10 16 N/A
9:53 am 09:53 Mostly Cloudy 51 10.6 25 -3.9 36 36 NNE 3 6 29.97 1015 10 16 N/A
10:32 am 10:32 Mostly Sunny 53 11.7 16 -8.9 23 23 NNE 12 19 29.91 1013 10 16 N/A
10:53 am 10:53 Mostly Cloudy 53 11.7 21 -6.1 28 28 NE 6 9 29.98 1015 10 16 N/A
11:53 am 11:53 Cloudy 55 12.8 28 -2.2 35 35 NE 8 13 29.96 1015 10 16 N/A
12:22 pm 12:22 Mostly Cloudy 58 14.4 21 -6.1 24 24 NNW 14 22 29.87 1011 10 16 N/A
12:53 pm 12:53 Partly Cloudy 59 15 26 -3.3 28 28 NNW 23 37 29.96 1015 10 16 N/A
1:53 pm 13:53 Mostly Sunny 60 15.6 26 -3.3 27 27 NW 15 24 29.98 1015 10 16 N/A
2:53 pm 14:53 Sunny 61 16.1 17 -8.3 18 18 N 24 39 30.00 1016 10 16 N/A
3:53 pm 15:53 Sunny 59 15 14 -10 17 17 NNW 17 28 30.04 1017 10 16 N/A
4:53 pm 16:53 Clear 55 12.8 9 -12.8 16 16 NNW 12 19 30.11 1020 10 16 N/A
5:53 pm 17:53 Clear 53 11.7 12 -11.1 19 19 NNW 8 13 30.17 1022 10 16 N/A
6:53 pm 18:53 Clear 50 10 13 -10.6 22 22 VRB 5 7 30.21 1023 10 16 N/A
7:53 pm 19:53 Clear 48 8.9 13 -10.6 24 24 NNW 9 15 30.25 1024 10 16 N/A
8:53 pm 20:53 Clear 47 8.3 12 -11.1 24 24 E 8 13 30.28 1025 10 16 N/A
9:53 pm 21:53 Clear 46 7.8 14 -10 27 27 NE 5 7 30.31 1026 10 16 N/A
10:53 pm 22:53 Clear 43 6.1 14 -10 31 31 NNE 5 7 30.33 1027 10 16 N/A
11:53 pm 23:53 Clear 44 6.7 12 -11.1 27 27 N 5 7 30.35 1028 10 16 N/A

Powered by AerisWeather